This is the latest recevied weather packets stored in our database for station/object N2OCK. If no packets are shown the sender has not sent any weather packets the latest 10 day(s).
| Time | Temp. | Humidity | Pressure | Rain* | Wind** | Luminosity | Snow |
|---|---|---|---|---|---|---|---|
| 1778007581 | 20.56° C | 65% | 1010.5 hPa | 0 mm | - | 621 W/m² | - |
| 1778007279 | 20.56° C | 66% | 1010.3 hPa | 0 mm | - | 629 W/m² | - |
| 1778006974 | 21.11° C | 65% | 1010.6 hPa | 0 mm | - | 640 W/m² | - |
| 1778006672 | 20.56° C | 64% | 1010.5 hPa | 0 mm | - | 647 W/m² | - |
| 1778006368 | 21.11° C | 64% | 1010.5 hPa | 0 mm | - | 656 W/m² | - |
| 1778006065 | 21.11° C | 63% | 1010.7 hPa | 0 mm | - | 663 W/m² | - |
| 1778005762 | 21.11° C | 63% | 1010.6 hPa | 0 mm | - | 670 W/m² | - |
| 1778005459 | 21.11° C | 64% | 1010.5 hPa | 0 mm | - | 677 W/m² | - |
| 1778005155 | 21.11° C | 64% | 1010.7 hPa | 0 mm | - | 682 W/m² | - |
| 1778004853 | 21.11° C | 65% | 1010.5 hPa | 0 mm | - | 689 W/m² | - |
| 1778004549 | 20.56° C | 64% | 1010.8 hPa | 0 mm | - | 695 W/m² | - |
| 1778004246 | 21.11° C | 66% | 1010.9 hPa | 0 mm | - | 701 W/m² | - |
| 1778003942 | 21.67° C | 64% | 1010.8 hPa | 0 mm | - | 705 W/m² | - |
| 1778003639 | 20.56° C | 66% | 1010.8 hPa | 0 mm | - | 708 W/m² | - |
| 1778003335 | 20.56° C | 65% | 1011 hPa | 0 mm | - | 713 W/m² | - |
| 1778003033 | 20° C | 67% | 1010.9 hPa | 0 mm | - | 717 W/m² | - |
| 1778002729 | 20° C | 66% | 1010.8 hPa | 0 mm | - | 720 W/m² | - |
| 1778002425 | 20° C | 67% | 1010.9 hPa | 0 mm | - | 723 W/m² | - |
| 1778002122 | 20° C | 67% | 1011 hPa | 0 mm | - | 726 W/m² | - |
| 1778001820 | 20.56° C | 67% | 1011 hPa | 0 mm | - | 727 W/m² | - |
| 1778001520 | 20° C | 69% | 1011 hPa | 0 mm | - | 729 W/m² | - |
| 1778001217 | 20.56° C | 66% | 1011 hPa | 0 mm | - | 731 W/m² | - |
| 1778000913 | 20.56° C | 65% | 1011 hPa | 0 mm | - | 731 W/m² | - |
| 1778000610 | 21.11° C | 65% | 1011 hPa | 0 mm | - | 734 W/m² | - |
| 1778000305 | 21.67° C | 64% | 1011.1 hPa | 0 mm | - | 732 W/m² | - |
* Rain latest hour (hover to see other rain measurements)
** Current wind speed in m/s (hover to see current wind gust speed)